Regional Weather Roundup
Issued by NWS Jackson, KY

Home | Current Version | Previous Version | Graphics & Text | Print | Product List | Glossary On
Versions: 1 2 3 4 5 6 7 8 9 10 11 12 13 14 15 16 17 18 19 20 21 22 23 24 25 26 27 28 29 30 31 32 33 34 35 36 37 38 39 40 41 42 43 44 45 46 47 48 49 50
000
ASUS43 KJKL 281405
RWRJKL

EAST KENTUCKY HOURLY WEATHER ROUNDUP
NATIONAL WEATHER SERVICE JACKSON KY
900 AM EST WED JAN 28 2015

NOTE: "FAIR" INDICATES FEW OR NO CLOUDS BELOW 12,000 FEET WITH
NO SIGNIFICANT WEATHER AND/OR OBSTRUCTIONS TO VISIBILITY.

* THESE REPORTS ARE NOT UNDER NWS QUALITY CONTROL AND MAY NOT
  REPORT WEATHER SUCH AS PRECIPITATION AND FOG.

KYZ079-080-083-085-087-088-110-112-115-119-120-281500
...EASTERN KENTUCKY...

CITY           SKY/WX    TMP DP  RH WIND       PRES   REMARKS
JACKSON        SUNNY     18  12  77 CALM      30.33R
LONDON         SUNNY     21  12  68 E3        30.34R
SOMERSET*      SUNNY     21  14  73 E6        30.38R WCI  14
MONTICELLO*    SUNNY     23  18  81 NE6       30.38R WCI  16
MIDDLESBORO*   SUNNY     20  18  91 CALM      30.36R
HARLAN APT*    SUNNY     19  18  93 CALM      30.32R
PIKEVILLE APT* LGT SNOW  19  16  86 CALM      30.33R
BIG SANDY*     PTSUNNY   19  15  88 CALM      30.35S
MOREHEAD APT*  SUNNY     18  12  79 CALM      30.38R
$$

KYZ035-036-041-042-044-050-067-078-099-281500
...CENTRAL KENTUCKY...

CITY           SKY/WX    TMP DP  RH WIND       PRES   REMARKS
MT STERLING*   SUNNY     19  14  79 SE3       30.37R
DANVILLE*      SUNNY     19  14  79 CALM      30.37R
RICHMOND*      CLEAR     19  14  79 CALM      30.35R
LEXINGTON      SUNNY     20  14  77 CALM      30.36R
FRANKFORT      SUNNY     19  14  81 CALM      30.37R
$$

KYZ091>093-OHZ055-061-077-WVZ005-015-034-035-042-281500
...SOUTHERN OHIO/WEST VIRGINIA...

CITY           SKY/WX    TMP DP  RH WIND       PRES   REMARKS
COVINGTON      SUNNY     19  15  84 CALM      30.35S FOG
COLUMBUS       MOSUNNY   10   7  87 CALM      30.37R
DAYTON         MOSUNNY   12  10  92 CALM      30.35R FOG
WILMINGTON     MOSUNNY   15  10  80 CALM      30.35R HAZE
HUNTINGTON     SUNNY     18  15  88 CALM      30.38R
CHARLESTON     MOSUNNY   19  14  81 CALM      30.37R
PINEVILLE*     LGT SNOW  23  19  83 MISG      30.34R
BECKLEY        LGT SNOW  17  13  84 NW6       30.23R FOG     WCI   9
BLUEFIELD      CLOUDY    18  12  77 W6        30.20R HAZE    WCI  10
$$

VAZ002-007-008-TNZ017-027-036-066-071-281500
...SOUTHWEST VIRGINIA/EAST TENNESSEE...

CITY           SKY/WX    TMP DP  RH WIND       PRES   REMARKS
WISE*          FLURRIES  18  18 100 CALM      30.23S
JONESVILLE*    SUNNY     19  16  86 CALM      30.34S
ABINGDON*      SUNNY     22  16  76 CALM      30.26R
BRISTOL        SUNNY     23  14  68 CALM      30.31R
KNOXVILLE      SUNNY     28  16  60 NE9       30.32  WCI  19
OAK RIDGE      SUNNY     29  15  56 VRB5      30.35R WCI  24
CROSSVILLE     SUNNY     25  15  66 NE7       30.28R WCI  17
NASHVILLE      MOSUNNY   32  19  58 E9        30.34R WCI  24
$$

...KEY TO REMARKS...
VSB - VISIBILITY IN MILES
WCI - WIND CHILL INDEX
HX  - HEAT INDEX

$$


USA.gov is the U.S. government's official web portal to all federal, state and local government web resources and services.